Regional Weather Roundup
Issued by NWS State College, PA

Home | Current Version | Previous Version | Text Only | Print | Product List | Glossary Off
Versions: 1 2 3 4 5 6 7 8 9 10 11 12 13 14 15 16 17 18 19 20 21 22 23 24 25 26 27 28 29 30 31 32 33 34 35 36 37 38 39 40 41 42 43 44 45 46 47 48 49 50

000
ASUS41 KCTP 131503
RWRCTP

REGIONAL WEATHER ROUNDUP
NATIONAL WEATHER SERVICE STATE COLLEGE PA
1000 AM EST WED DEC 13 2017

Note: "fair" indicates few or no clouds below 12,000 feet with no
significant weather and/or obstructions to visibility.

* = STATION THAT DOES NOT REPORT PRECIPITATION /E.G. RAIN...SNOW...ETC/
    THUNDER OR FOG.

PAZ002>004-007>009-013>016-020>023-029>032-131600-
WESTERN PENNSYLVANIA

CITY           SKY/WX    TMP DP  RH WIND       PRES   REMARKS
ERIE           CLOUDY    19   9  65 W14G24    29.78S WCI   6
MEADVILLE      LGT SNOW  14  11  87 SW10      29.75S FOG     WCI   1
FRANKLIN*      LGT SNOW  15  10  80 W13       29.74S WCI   1
NEW CASTLE     CLOUDY    17   9  70 SW10      29.81F WCI   5
BEAVER COUNTY  CLOUDY    18   9  68 W12G17    29.82R WCI   5
BUTLER*        MOSUNNY   20   8  60 W10G18    29.81R WCI   9
PITTSBURGH INT PTSUNNY   20   8  60 W12       29.82S WCI   8
PITTSBURGH     MOSUNNY   18   5  57 W17G24    29.82S WCI   3
INDIANA*       CLOUDY    16   9  73 W14G23    29.81S WCI   1
LATROBE        PTSUNNY   16   5  62 W14G25    29.84R WCI   1
WASHINGTON CO* CLOUDY    19  11  70 W13       29.88R WCI   6
$$

PAZ004>006-010>012-017>019-024>028-033>037-041-042-045-046-049>053-131600-
CENTRAL PENNSYLVANIA

CITY           SKY/WX    TMP DP  RH WIND       PRES   REMARKS
BRADFORD       SNOW      14  10  84 W12       29.62R VSB 1/2 WCI   0
DUBOIS         LGT SNOW  13   7  77 W14       29.69R WCI  -2
CLEARFIELD     MIX PCPN  17   8  67 W15G30    29.71R WCI   2
JOHNSTOWN      CLOUDY    13   4  67 W18G28    29.68F WCI  -4
ALTOONA        CLOUDY    19   5  54 W18G26    29.74S WCI   4
STATE COLLEGE  MOSUNNY   18   7  62 NW21G36   29.70R WCI   1
WILLIAMSPORT   CLOUDY    24   9  52 W17G30    29.67R WCI  11
SELINSGROVE    PTSUNNY   24   8  50 W15G28    29.72R WCI  11
FT INDIANTOWN  PTSUNNY   24   4  43 W10G36    29.71R WCI  13
CAPITAL CITY   MOSUNNY   26   3  37 W20G38    29.74R WCI  12
HARRISBURG     MOSUNNY   26   8  46 W24G32    29.74R WCI  11
YORK           SUNNY     24   5  44 W18G37    29.75R WCI  10
$$

PAZ038>040-043-044-047-048-054-055-060>062-067>071-131600-
EASTERN PENNSYLVANIA

CITY           SKY/WX    TMP DP  RH WIND       PRES   REMARKS
SCRANTON       CLOUDY    20   5  52 NW17G33   29.57R WCI   5
MOUNT POCONO   CLOUDY    14   6  70 W24G41    29.43R BLWGSNOWWCI  -5
ALLENTOWN      MOSUNNY   26   7  44 W17G36    29.62R WCI  13
QUAKERTOWN*    MOSUNNY   25   5  42 W17G26    29.63S WCI  11
READING        PTSUNNY   25   9  50 W21G38    29.68R WCI  11
LANCASTER        N/A     25   7  46 MISG      29.71R
COATESVILLE    SUNNY     25   7  46 NW23G36   29.69R WCI  10
POTTSTOWN      PTSUNNY   24   6  46 W15G28    29.68R WCI  11
BLUE BELL      MOSUNNY   27   9  46 W22G28    29.68R WCI  12
DOYLESTOWN     SUNNY     24   5  44 W21G37    29.61S WCI   9
WILLOW GROVE   NOT AVBL
NORTH PHILA    MOSUNNY   28   6  39 W24G36    29.67S WCI  14
PHILADELPHIA   MOSUNNY   26   4  38 W26G38    29.70S WCI  10
$$




USA.gov is the U.S. government's official web portal to all federal, state and local government web resources and services.